TimeEDT,TemperatureF,Dew PointF,Humidity,Sea Level PressureIn,VisibilityMPH,Wind Direction,Wind SpeedMPH,Gust SpeedMPH,PrecipitationIn,Events,Conditions,WindDirDegrees,DateUTC
12:15 AM,59.0,59.0,100,29.97,10.0,SSW,6.9,-,N/A,Rain,Rain,200,2013-03-19 04:15:00
12:55 AM,59.0,59.0,100,29.94,10.0,SSW,8.1,-,N/A,Rain,Light Rain,210,2013-03-19 04:55:00
1:15 AM,59.0,59.0,100,29.93,10.0,South,10.4,-,N/A,Rain,Light Rain,190,2013-03-19 05:15:00
1:35 AM,59.0,59.0,100,29.90,10.0,South,13.8,-,N/A,Rain,Light Rain,180,2013-03-19 05:35:00
1:55 AM,59.0,59.0,100,29.87,10.0,South,13.8,18.4,N/A,,Overcast,170,2013-03-19 05:55:00
2:15 AM,60.8,57.2,88,29.90,10.0,NW,8.1,-,N/A,,Scattered Clouds,320,2013-03-19 06:15:00
2:35 AM,59.0,57.2,94,29.88,10.0,Calm,Calm,-,N/A,,Clear,0,2013-03-19 06:35:00
2:55 AM,59.0,57.2,94,29.88,10.0,SSE,3.5,-,N/A,,Clear,160,2013-03-19 06:55:00
3:15 AM,59.0,57.2,94,29.86,10.0,Calm,Calm,-,N/A,,Clear,0,2013-03-19 07:15:00
3:35 AM,59.0,57.2,94,29.86,10.0,South,4.6,-,N/A,,Clear,190,2013-03-19 07:35:00
3:55 AM,59.0,57.2,94,29.87,10.0,SSW,3.5,-,N/A,,Scattered Clouds,200,2013-03-19 07:55:00
4:15 AM,59.0,57.2,94,29.88,10.0,WSW,3.5,-,N/A,,Clear,250,2013-03-19 08:15:00
4:35 AM,59.0,57.2,94,29.87,10.0,Calm,Calm,-,N/A,,Mostly Cloudy,0,2013-03-19 08:35:00
4:55 AM,59.0,57.2,94,29.89,10.0,Calm,Calm,-,N/A,,Scattered Clouds,0,2013-03-19 08:55:00
5:15 AM,59.0,57.2,94,29.92,10.0,West,5.8,-,N/A,,Clear,270,2013-03-19 09:15:00
5:35 AM,59.0,57.2,94,29.93,10.0,West,5.8,-,N/A,,Scattered Clouds,260,2013-03-19 09:35:00
5:55 AM,59.0,59.0,100,29.92,10.0,West,4.6,-,N/A,,Overcast,270,2013-03-19 09:55:00
6:15 AM,59.0,59.0,100,29.94,10.0,WSW,4.6,-,N/A,Rain,Light Rain,250,2013-03-19 10:15:00
6:35 AM,59.0,59.0,100,29.91,10.0,South,5.8,-,N/A,,Overcast,190,2013-03-19 10:35:00
6:55 AM,59.0,57.2,94,29.89,10.0,SSW,4.6,-,N/A,,Mostly Cloudy,210,2013-03-19 10:55:00
7:15 AM,59.0,59.0,100,29.94,10.0,NW,4.6,-,N/A,,Overcast,310,2013-03-19 11:15:00
7:55 AM,59.0,59.0,100,29.96,10.0,WNW,5.8,-,N/A,,Overcast,290,2013-03-19 11:55:00
8:15 AM,59.0,59.0,100,29.96,7.0,West,4.6,-,N/A,,Overcast,260,2013-03-19 12:15:00
8:35 AM,59.0,59.0,100,29.97,7.0,West,4.6,-,N/A,,Overcast,260,2013-03-19 12:35:00
8:55 AM,60.8,59.0,94,29.97,10.0,WNW,5.8,-,N/A,,Overcast,290,2013-03-19 12:55:00
9:35 AM,60.8,57.2,88,29.99,10.0,NW,10.4,16.1,N/A,,Overcast,310,2013-03-19 13:35:00
9:55 AM,60.8,57.2,88,30.00,10.0,NNW,9.2,17.3,N/A,,Overcast,330,2013-03-19 13:55:00
10:15 AM,60.8,55.4,82,30.01,10.0,NW,8.1,17.3,N/A,,Overcast,310,2013-03-19 14:15:00
10:35 AM,60.8,55.4,82,30.02,10.0,NW,6.9,16.1,N/A,,Overcast,310,2013-03-19 14:35:00
10:55 AM,60.8,55.4,82,30.02,10.0,NW,10.4,-,N/A,,Overcast,320,2013-03-19 14:55:00
11:35 AM,62.6,55.4,77,30.02,10.0,WNW,8.1,-,N/A,,Scattered Clouds,300,2013-03-19 15:35:00
11:55 AM,64.4,55.4,73,30.01,10.0,NW,8.1,-,N/A,,Clear,320,2013-03-19 15:55:00
12:15 PM,64.4,55.4,73,30.01,10.0,NNW,6.9,-,N/A,,Clear,340,2013-03-19 16:15:00
12:35 PM,66.2,55.4,68,30.02,10.0,NW,9.2,-,N/A,,Clear,320,2013-03-19 16:35:00
12:55 PM,68.0,55.4,64,30.01,10.0,NNW,8.1,-,N/A,,Clear,340,2013-03-19 16:55:00
1:15 PM,69.8,55.4,60,30.01,10.0,WNW,9.2,-,N/A,,Clear,300,2013-03-19 17:15:00
1:35 PM,69.8,53.6,56,30.00,10.0,NW,6.9,-,N/A,,Clear,320,2013-03-19 17:35:00
1:55 PM,71.6,53.6,53,29.99,10.0,NNW,10.4,-,N/A,,Clear,330,2013-03-19 17:55:00
2:15 PM,71.6,53.6,53,29.99,10.0,NW,8.1,-,N/A,,Clear,310,2013-03-19 18:15:00
2:35 PM,73.4,46.4,38,29.97,10.0,NW,9.2,-,N/A,,Clear,320,2013-03-19 18:35:00
2:55 PM,73.4,46.4,38,29.97,10.0,NW,9.2,-,N/A,,Clear,310,2013-03-19 18:55:00
3:15 PM,75.2,46.4,36,29.96,10.0,NNW,10.4,-,N/A,,Clear,330,2013-03-19 19:15:00
3:35 PM,75.2,42.8,31,29.96,10.0,WNW,6.9,-,N/A,,Clear,300,2013-03-19 19:35:00
3:55 PM,75.2,37.4,25,29.96,10.0,WNW,6.9,-,N/A,,Clear,300,2013-03-19 19:55:00
4:15 PM,77.0,37.4,24,29.96,10.0,NW,8.1,16.1,N/A,,Clear,320,2013-03-19 20:15:00
4:35 PM,77.0,37.4,24,29.96,10.0,NW,9.2,16.1,N/A,,Clear,310,2013-03-19 20:35:00
4:55 PM,77.0,37.4,24,29.96,10.0,NNW,8.1,-,N/A,,Clear,330,2013-03-19 20:55:00
5:15 PM,77.0,37.4,24,29.96,10.0,WNW,4.6,-,N/A,,Clear,300,2013-03-19 21:15:00
5:35 PM,77.0,33.8,21,29.96,10.0,NNW,9.2,-,N/A,,Clear,330,2013-03-19 21:35:00
5:55 PM,77.0,32.0,19,29.96,10.0,NNW,10.4,-,N/A,,Clear,330,2013-03-19 21:55:00
6:15 PM,77.0,32.0,19,29.97,10.0,NNW,6.9,-,N/A,,Clear,330,2013-03-19 22:15:00
6:35 PM,75.2,32.0,21,29.97,10.0,NNW,9.2,-,N/A,,Clear,330,2013-03-19 22:35:00
6:55 PM,73.4,32.0,22,29.97,10.0,NNW,6.9,-,N/A,,Clear,330,2013-03-19 22:55:00
7:15 PM,71.6,33.8,25,29.98,10.0,North,6.9,-,N/A,,Clear,360,2013-03-19 23:15:00
7:35 PM,69.8,33.8,27,29.98,10.0,North,5.8,-,N/A,,Clear,350,2013-03-19 23:35:00
7:55 PM,68.0,32.0,26,29.98,10.0,North,3.5,-,N/A,,Clear,350,2013-03-19 23:55:00
8:15 PM,66.2,33.8,30,29.99,10.0,North,3.5,-,N/A,,Clear,10,2013-03-20 00:15:00
8:35 PM,64.4,35.6,34,29.99,10.0,North,4.6,-,N/A,,Clear,350,2013-03-20 00:35:00
8:55 PM,64.4,33.8,32,30.00,10.0,North,4.6,-,N/A,,Clear,350,2013-03-20 00:55:00
9:15 PM,62.6,35.6,37,30.02,10.0,North,5.8,-,N/A,,Clear,350,2013-03-20 01:15:00
9:35 PM,60.8,35.6,39,30.02,10.0,North,5.8,-,N/A,,Clear,350,2013-03-20 01:35:00
9:55 PM,60.8,33.8,36,30.03,10.0,North,6.9,-,N/A,,Clear,350,2013-03-20 01:55:00
10:15 PM,60.8,33.8,36,30.04,10.0,North,6.9,-,N/A,,Clear,350,2013-03-20 02:15:00
10:35 PM,60.8,33.8,36,30.03,10.0,North,5.8,-,N/A,,Clear,350,2013-03-20 02:35:00
10:55 PM,59.0,32.0,36,30.03,10.0,North,4.6,-,N/A,,Clear,10,2013-03-20 02:55:00
11:15 PM,59.0,32.0,36,30.04,10.0,North,4.6,-,N/A,,Clear,350,2013-03-20 03:15:00
11:35 PM,59.0,32.0,36,30.04,10.0,North,6.9,-,N/A,,Clear,350,2013-03-20 03:35:00
11:55 PM,55.4,33.8,44,30.03,10.0,North,5.8,-,N/A,,Clear,350,2013-03-20 03:55:00